Regional Weather Roundup
Issued by NWS

Home | Current Version | Previous Version | Text Only | Print | Product List | Glossary On
Versions: 1 2 3 4 5 6 7 8 9 10 11 12 13 14 15 16 17 18 19 20 21 22 23 24 25 26 27 28 29 30 31 32 33 34 35 36 37 38 39 40 41 42 43 44 45 46 47 48 49 50
000
ASUS46 KLOX 170704
RWRCA

SOUTHERN CALIFORNIA WEATHER ROUNDUP
NATIONAL WEATHER SERVICE OXNARD CALIFORNIA
1200 AM PDT THU AUG 17 2017

NOTE: "FAIR" INDICATES FEW OR NO CLOUDS BELOW 12,000 FEET WITH NO
SIGNIFICANT WEATHER AND/OR OBSTRUCTIONS TO VISIBILITY.

  -  STATIONS PRECEEDED BY AN ASTERISK (*) ARE NOT NWS OR FAA
     STATIONS AND ARE NOT SUBJECT TO NWS AND FAA QUALITY CONTROL.

CAZ041-042-087-170800-
LA AND ORANGE COUNTY COASTAL AREAS


CITY           SKY/WX    TMP DP  RH WIND       PRES   REMARKS
L.A. DOWNTOWN  CLEAR     67  60  78 CALM      29.96S
L.A. AIRPORT   CLEAR     66  61  84 SW8       29.96S
LONG BEACH     CLEAR     67  61  81 NW6       29.96S

CITY           SKY/WX    TMP DP  RH WIND       PRES   REMARKS
AVALON           N/A     61 N/A N/A MISG        N/A
FULLERTON      CLEAR     68  61  78 CALM      29.96R
*GETTY CENTER    N/A     61  59  94 NE2         N/A
HAWTHORNE      CLEAR     66  61  84 SW6       29.97R
*LEO CARRILLO    N/A     65  56  74 CALM        N/A
*LOS ALAMITOS  FAIR      65  60  82 CALM      29.96S
*REDONDO BEACH   N/A     65  60  82 CALM      29.96R
SANTA ANA      CLEAR     68  62  81 CALM      29.96S
STA MONICA APT CLEAR     65  61  87 CALM      29.96S
*UCLA            N/A     63  57  82 CALM      29.94R

$$

CAZ547-548-048-170800-
LA COUNTY VALLEYS AND INLAND EMPIRE


CITY           SKY/WX    TMP DP  RH WIND       PRES   REMARKS
BURBANK        CLEAR     67  58  72 SE5       29.96S
VAN NUYS       CLEAR     67  58  72 CALM      29.96S

CITY           SKY/WX    TMP DP  RH WIND       PRES   REMARKS
CORONA AIRPORT SUNNY     65  59  81 N3        29.98R
*CHATSWORTH      N/A     65  56  72 CALM      29.93S
CHINO          CLEAR     67  59  75 W3        29.99R
*CLAREMONT       N/A     62  56  81 CALM        N/A
MARCH AFB      CLEAR     63  60  90 NW3       29.99S
*NORTHRIDGE      N/A     64  54  68 S3          N/A
ONTARIO        CLEAR     67  59  75 SW6       29.98R
*PASADENA        N/A     66  61  82 CALM        N/A
RIVERSIDE      CLEAR     67  60  78 CALM      29.98R
SAN BERNARDINO FAIR      69  58  67 W3        29.99S
*SAN RAFAEL HI   N/A     63  58  84 E3          N/A
*SAUGUS          N/A     63  56  78 CALM        N/A
*WHITEMAN AP   NOT AVBL
*WHITTIER HILL   N/A     62  60  94 CALM        N/A
*WOODLAND HILL   N/A     64  55  72 SW1         N/A

$$

CAZ054-055-170800-
LA AND SAN BERNARDINO COUNTY MOUNTAINS


CITY           SKY/WX    TMP DP  RH WIND       PRES   REMARKS
*ACTON           N/A     61  55  81 CALM        N/A
*BIG BEAR AIRP SUNNY     46  30  53 CALM      30.23S
*BIG PINES       N/A     59  32  36 CALM        N/A
*CHILAO          N/A     61  39  44 NE2         N/A
SANDBERG       CLEAR     64  53  67 W8        30.11S
*WARM SPRINGS    N/A     60  55  82 SW6         N/A

$$

CAZ028-029-059-060-099-170800-
ANTELOPE VALLEY AND SURROUNDING AREAS


CITY           SKY/WX    TMP DP  RH WIND       PRES   REMARKS
LANCASTER      CLEAR     72  52  49 SW12      29.98R
PALMDALE       CLEAR     73  44  35 SW10      29.99R
*POPPY PARK      N/A     67  55  64 SW14        N/A

CITY           SKY/WX    TMP DP  RH WIND       PRES   REMARKS
29 PALMS       CLEAR     80  39  23 NW6       29.98R
BARSTOW/DAGGET CLEAR     79  49  34 W10       29.93R
BISHOP         PTCLDY    74  46  36 CALM      30.05R
CHINA LAKE     CLEAR     80  47  31 SW9       29.91R
EDWARDS AFB    CLEAR     71  49  45 SW8       29.95R
MOJAVE         CLEAR     73  50  43 SW6       29.97S
NEEDLES        CLEAR     90  32  12 W5        29.83R
VICTORVILLE    CLEAR     66  46  48 CALM      30.01S

$$

CAZ039-040-170800-
VENTURA AND SANTA BARBARA COUNTY COAST


CITY           SKY/WX    TMP DP  RH WIND       PRES   REMARKS
CAMARILLO      CLEAR     65  56  72 CALM      29.96S
OXNARD AIRPORT CLEAR     62  58  86 CALM      29.96S
*POINT MUGU    CLEAR     61  55  81 CALM      29.97S
SBA APT/GOLETA CLEAR     64  57  78 E3        29.95S
*SANTA BARBARA   N/A     67  56  67 CALM      30.03S
*VENTURA         N/A     62  56  82 CALM      29.93S

$$

CAZ044-045-170800-
VENTURA COUNTY VALLEYS


CITY           SKY/WX    TMP DP  RH WIND       PRES   REMARKS
*SIMI VALLEY     N/A     60  55  84 CALM      29.91F
*WESTLAKE VILL   N/A     56  51  84 CALM      29.94S
*OJAI            N/A     58  54  86 CALM      29.91S
*FILLMORE        N/A     59  56  87 CALM      29.99F

$$

CAZ053-170800-
VENTURA COUNTY MOUNTAINS


CITY           SKY/WX    TMP DP  RH WIND       PRES   REMARKS
*LOCKWOOD VLY    N/A     52  43  71 NW1         N/A
*ROSE VALLEY     N/A     54  52  94 MISG        N/A

$$

CAZ034-035-036-170800-
CENTRAL COAST AND SANTA YNEZ VALLEY


CITY           SKY/WX    TMP DP  RH WIND       PRES   REMARKS
SAN LUIS OBISP CLEAR     60  55  83 NW5       30.00S
SANTA MARIA    MOCLDY    58  56  93 CALM      30.01R

CITY           SKY/WX    TMP DP  RH WIND       PRES   REMARKS
*CAL POLY SLO    N/A     57  55  94 CALM        N/A
*LOMPOC        MOCLDY    58  53  84 CALM      30.00F
*PISMO BEACH     N/A     60  55  86 CALM      30.00S
*SANTA YNEZ    FAIR      55  52  88 CALM      30.00F

$$

CAZ037-038-051-170800-
SAN LUIS OBISPO COUNTY INTERIOR AND CUYAMA VALLEY


CITY           SKY/WX    TMP DP  RH WIND       PRES   REMARKS
*CUYAMA          N/A     62  52  69 CALM      29.92R
PASO ROBLES    CLEAR     60  53  77 SW3       29.99R

$$

CAZ032-033-061-170800-
SOUTHERN DESERTS


CITY           SKY/WX    TMP DP  RH WIND       PRES   REMARKS
BLYTHE         CLEAR     87  35  15 SW6       29.81R
IMPERIAL       CLEAR     86  49  27 W12       29.79R
PALM SPRINGS   CLEAR     84  49  29 NW12      29.84S
THERMAL        CLEAR     84  56  38 NW12      29.78R

$$

ELSEWHERE ACROSS THE WESTERN UNITED STATES AND MEXICO


CITY           SKY/WX    TMP DP  RH WIND       PRES   REMARKS
DENVER, CO     PTCLDY    62  45  53 SW8       30.17F
GRAND CANYON,  CLEAR     48  36  63 CALM      30.27R
HONOLULU, HI   PTCLDY    79  66  64 NE14      29.99R
KAHULUI, MAUI  CLEAR     78  68  71 NE12      29.99R
LAKE TAHOE, CA CLEAR     53  45  74 CALM      30.25F
LAS VEGAS, NV  PTCLDY    85  39  19 SW3       29.91R
MAMMOTH LAKES, FAIR      60  39  45 W7        30.30S
MEXICO CITY, M   N/A    N/A N/A N/A MISG        N/A
PHOENIX, AZ    CLEAR     91  49  23 CALM      29.85R
PORTLAND, OR   PTCLDY    66  58  75 NW8       30.11S
RENO, NV       PTCLDY    76  48  37 W3        30.12R
SALT LAKE CITY PTCLDY    72  40  31 SE6       30.05S
SAN DIEGO, CA  PTCLDY    67  60  78 NW3       29.99S
SAN FRANCISCO, CLEAR     62  55  77 NW7       29.97S
SAN JOSE, CA   CLEAR     64  58  80 CALM      29.97S
SEATTLE, WA    CLOUDY    64  57  78 CALM      30.13R
TIJUANA, MEX   CLEAR     63  59  88 CALM      30.01S

$$

STATION/POSITION TIME  TEMP    WIND        PRES    VSBY  WAVE
                       AIR SEA DIR/SP/G                  HT/PER
                 (UTC) (F)     (DEG/KT/KT) (MB)    (MI)  (FT/S)
POINT ARGUELLO B NOT AVBL
WEST SANTA BARBA 0640   62 61  310/ 16/ 19 1015.0S
POINT CONCEPTION NOT AVBL
EAST SANTA BARBA 0640   63 66  250/ 10/ 12 1015.2S
SANTA MONICA BAY 0640      70  300/  6/  8 1014.5R


USA.gov is the U.S. government's official web portal to all federal, state and local government web resources and services.